Regional Weather Roundup
Issued by NWS

Home | Current Version | Previous Version | Graphics & Text | Print | Product List | Glossary On
Versions: 1 2 3 4 5 6 7 8 9 10 11 12 13 14 15 16 17 18 19 20 21 22 23 24 25 26 27 28 29 30 31 32 33 34 35 36 37 38 39 40 41 42 43 44 45 46 47 48 49 50
000
ASUS43 KTOP 310759
RWRKS

WEATHER ROUNDUP FOR KANSAS
NATIONAL WEATHER SERVICE GOODLAND KS
300 AM CDT SUN AUG 31 2014

NOTE:  "FAIR" INDICATES FEW OR NO CLOUDS BELOW 12,000 FEET WITH NO
SIGNIFICANT WEATHER AND/OR OBSTRUCTIONS TO VISIBILITY.

KSZ001>006-013>018-027>032-041>047-310900-
NORTHWEST KANSAS

CITY           SKY/WX    TMP DP  RH WIND       PRES   REMARKS
GOODLAND       LGT RAIN  65  57  75 SE13      29.87F
HAYS           PTCLDY    73  55  53 SW10      29.86R
HILL CITY      MOCLDY    71  57  61 S6        29.83F
RUSSELL        CLEAR     74  58  57 S15       29.82F
$$

KSZ061>065-074>080-084>089-310900-
SOUTHWEST KANSAS

CITY           SKY/WX    TMP DP  RH WIND       PRES   REMARKS
DODGE CITY     PTCLDY    76  57  51 S16       29.87S
ELKHART          N/A     73  51  46 S16         N/A
GARDEN CITY    CLEAR     72  57  59 S14       29.86F
GREAT BEND     CLEAR     72  57  60 S13       29.85F
LIBERAL        PTCLDY    73  55  53 S12G18    29.90F
$$

KSZ066>073-081>083-090>101-310900-
SOUTHEAST KANSAS

CITY           SKY/WX    TMP DP  RH WIND       PRES   REMARKS
CHANUTE        CLEAR     73  69  87 S8        29.91S
COFFEYVILLE    CLEAR     72  69  90 S3        29.90F
HUTCHINSON     CLEAR     72  64  76 SE8       29.87F
MEDICINE LODGE   N/A     72  63  73 CALM      29.87F
NEWTON         CLEAR     72  61  68 S9        29.91F
PARSONS        CLEAR     73  69  87 S5        29.92S
WICHITA INTL   CLEAR     72  67  84 SE8       29.87F
WICHITA JABRA  CLEAR     72  67  84 S9        29.88F
WINFIELD       CLEAR     72  68  87 S8        29.90S
$$

KSZ007>012-019>026-033>040-048>060-102>105-310900-
NORTHEAST KANSAS

CITY           SKY/WX    TMP DP  RH WIND       PRES   REMARKS
CONCORDIA      CLEAR     72  61  68 S10       29.83F
EMPORIA        CLEAR     70  63  78 S10       29.88F
LAWRENCE       CLEAR     68  63  84 E6        29.88S
MANHATTAN      CLEAR     72  61  68 CALM      29.84F
OLATHE IND     CLEAR     71  67  87 S8        29.90R
OLATHE EXE     CLEAR     71  67  87 S6        29.89S
SALINA         PTCLDY    75  62  64 S9        29.84F
TOPEKA BILLARD CLEAR     71  65  81 SE3       29.87F
TOPEKA FORBES  CLEAR     69  64  84 SE6       29.87F
$$


USA.gov is the U.S. government's official web portal to all federal, state and local government web resources and services.